Location: Demre
(36.2444°N, 29.9850°E)
Time: 05:59:48
(UTC+00:00)

SeaSat 1 - Pass Details

Date: 11 March 2026
Orbit: 736 x 740 km, 108.0° (Epoch: 21 April)

Event Time Altitude Azimuth Distance (km) Brightness Sun altitude
Exits shadow 18:53:24 34° 304° (NW) 1,211 3.9 -34.2°
Drops below altitude 10° 18:56:21 10° 325° (NW) 2,248 5.5 -34.8°
Sets 18:58:40 0° 330° (NNW) 3,175 6.4 -35.2°
